Regional Weather Roundup
Issued by NWS

Home | Current Version | Previous Version | Graphics & Text | Print | Product List | Glossary On
Versions: 1 2 3 4 5 6 7 8 9 10 11 12 13 14 15 16 17 18 19 20 21 22 23 24 25 26 27 28 29 30 31 32 33 34 35 36 37 38 39 40 41 42 43 44 45 46 47 48 49 50
366
ASUS45 KBOU 201207
RWRCO

WEATHER ROUNDUP FOR COLORADO
NATIONAL WEATHER SERVICE DENVER/BOULDER CO
500 AM MST FRI JAN 20 2017

NOTE: "FAIR" INDICATES FEW OR NO CLOUDS BELOW 12000 FEET WITH NO
SIGNIFICANT WEATHER AND/OR OBSTRUCTIONS TO VISIBILITY.

COZ001>005-013-030-031-201300-
...NORTHWEST COLORADO...

CITY           SKY/WX    TMP DP  RH WIND       PRES   REMARKS
CRAIG          CLOUDY    26  23  88 SW3       29.56S
HAYDEN         NOT AVBL
MEEKER         LGT SNOW  24  22  91 CALM      29.55S VSB 1
MOUNT WERNER   NOT AVBL
STEAMBOAT SPGS CLOUDY    23  21  94 CALM      29.53F
WALDEN           N/A     23  18  80 S8        29.51F WCI  14
$$

COZ006>008-011-201300-
...WEST CENTRAL VALLEYS...

CITY           SKY/WX    TMP DP  RH WIND       PRES   REMARKS
GRAND JUNCTION CLOUDY    31  31 100 CALM      29.58S FOG
MONTROSE       CLOUDY    31  30  96 E8        29.60S WCI  23
EAGLE          LGT SNOW  26  25  96 CALM      29.56F FOG
RIFLE          LGT SNOW  30  30 100 CALM      29.56F FOG
DELTA          CLOUDY    33  33  99 CALM      29.59S VSB 3/4
NUCLA          FLURRIES  32  30  93 CALM      29.64S
$$

COZ017>023-064>068-201300-
...SOUTHWEST COLORADO...

CITY           SKY/WX    TMP DP  RH WIND       PRES   REMARKS
DURANGO        MOCLDY    25  23  92 W7        29.64F WCI  17
CORTEZ         LGT SNOW  29  27  92 S13       29.66S FOG     WCI  19
PAGOSA SPRINGS CLOUDY    27  25  93 SW3       29.65R
TELLURIDE      CLOUDY    23  18  83 CALM      29.60S
WOLF CREEK PAS CLOUDY    10   9  92 S29G41    29.56F WCI -11
$$

COZ009-010-012-014-032>034-037-058>063-201300-
...CENTRAL COLORADO...

CITY           SKY/WX    TMP DP  RH WIND       PRES   REMARKS
ASPEN          LGT SNOW  25  24  96 CALM      29.51F FOG
BUENA VISTA    CLOUDY    22  19  87 W3        29.51F
COPPER MTN     FLURRIES  19  14  79 MISG      29.50F
BERTHOUD PASS  NOT AVBL
COTTONWOOD PAS LGT SNOW  25  21  86 N3        29.49F
GUNNISON       FLURRIES  11   8  88 NW5       29.59F WCI   3
KREMMLING      FLURRIES  19  16  86 CALM      29.56F
LEADVILLE      CLOUDY    17  14  88 N3        29.48F
MONARCH PASS   CLOUDY    14  10  85 SW12G26   29.61S WCI   0
SALIDA         CLOUDY    29  20  68 S5        29.58F WCI  24
SUNLIGHT       LGT SNOW  18  16  93 SW6       29.56F VSB 3/4 WCI   9
WILKERSON PASS CLOUDY   N/A N/A N/A W7        29.50F
$$

COZ069>075-201300-
...SAN LUIS VALLEY/SANGRE DE CRISTO MOUNTAINS...

CITY           SKY/WX    TMP DP  RH WIND       PRES   REMARKS
ALAMOSA        CLOUDY    18  16  92 NW5       29.56F WCI  11
LA VETA PASS   CLOUDY    21  18  86 NE17G44   29.46S FOG     WCI   7
SAGUACHE       CLOUDY    21  21 100 CALM      29.57F
$$

COZ035-036-038>040-201300-
...NORTHERN COLORADO FRONT RANGE...

CITY           SKY/WX    TMP DP  RH WIND       PRES   REMARKS
DENVER INTL AP CLOUDY    34  24  67 W7        29.44F WCI  28
DMNS CITY PARK   N/A     35  24  63 MISG      29.46R
AURORA         CLOUDY    33  25  70 S7        29.45S WCI  27
FRONT RANGE AP CLOUDY    34  28  80 S3        29.45S
ERIE MUNI ARPT CLOUDY    32  29  87 CALM      29.46R
BOULDER MUN AP CLOUDY    34  27  75 CALM      29.45S
CENTENNIAL     CLOUDY    36  27  69 S5        29.44F
BROOMFIELD     CLOUDY    37  30  75 W5        29.46S
FORT COLLINS   FAIR      30  25  80 CALM      29.46S
LONGMONT       CLOUDY    35  27  72 CALM      29.48S
$$

COZ041-046-047-076>085-087-088-201300-
...PIKES PEAK/PALMER DIVIDE AND SOUTHERN FOOTHILLS...

CITY           SKY/WX    TMP DP  RH WIND       PRES   REMARKS
COLO. SPRINGS  CLOUDY    35  30  82 N15       29.45F WCI  25
A. F. ACADEMY  CLOUDY    33  28  81 N15       29.45S WCI  23
SCHRIEVER AFB  NOT AVBL
ELLICOTT       SNOW     N/A N/A N/A N8        29.46S
FALCON         FLURRIES  32  30  92 N12       29.46F WCI  23
FORT CARSON    CLOUDY    36  30  79 W5        29.46S
LIMON          CLOUDY    29  24  82 W9        29.46R WCI  20
MONUMENT HILL  LGT SNOW  30  28  93 W12       29.48S WCI  21
TRINIDAD       FAIR      31  26  82 S3        29.47R
$$

COZ042>045-048>051-090-091-201300-
...NORTHEAST COLORADO...

CITY           SKY/WX    TMP DP  RH WIND       PRES   REMARKS
GREELEY ARPT   FAIR      29  26  89 CALM      29.47S
AKRON          FAIR      27  22  81 N8        29.43F WCI  19
BURLINGTON     FAIR      31  28  89 N6        29.43F WCI  25
WRAY           NOT AVBL
STERLING       FAIR      23  21  93 CALM      29.44F
HOLYOKE        FAIR      32  27  80 NW9       29.43F WCI  24
FORT MORGAN    FAIR      27  24  90 W8        29.46S WCI  18
$$

COZ086-089-092>099-201300-
...SOUTHEAST COLORADO...

CITY           SKY/WX    TMP DP  RH WIND       PRES   REMARKS
PUEBLO         CLOUDY    42  30  62 N8        29.42F
LA JUNTA       FOG       30  28  92 NE13      29.41F VSB 1   WCI  20
LAMAR          CLOUDY    30  28  92 E3        29.43F FOG
SPRINGFIELD      N/A     41  34  76 W5        29.42F
$$




USA.gov is the U.S. government's official web portal to all federal, state and local government web resources and services.